DW9080 Weather Reports


time (UTC)temp
C
wind
direction
speed
KPH
gust
KPH
rain 1hr
cm
rain 24hr
cm
rain mn
cm
humidity
%
barometer
mb
20260905195056 26 131 0.0 3.2 0.00 0.00 0.00 42 1005.9
20260905194557 26 278 0.0 1.6 0.00 0.00 0.00 45 1006.0
20260905194054 25 53 0.0 1.6 0.00 0.00 0.00 40 1006.0
20260905193534 25 70 0.0 1.6 0.00 0.00 0.00 41 1006.2
20260905193034 25 60 0.0 1.6 0.00 0.00 0.00 40 1006.3
20260905192535 25 15 0.0 3.2 0.00 0.00 0.00 41 1006.4
20260905192033 26 29 0.0 3.2 0.00 0.00 0.00 39 1006.5
20260905191536 25 65 0.0 1.6 0.00 0.00 0.00 42 1006.6
20260905191031 25 67 0.0 1.6 0.00 0.00 0.00 40 1006.6
20260905190512 26 84 0.0 1.6 0.00 0.00 0.00 41 1006.7
20260905190012 26 109 0.0 1.6 0.00 0.00 0.00 44 1006.8
20260905185510 25 200 0.0 4.8 0.00 0.00 0.00 47 1006.8
20260905185008 25 127 0.0 4.8 0.00 0.00 0.00 46 1007.0
20260905184508 24 67 0.0 0.0 0.00 0.00 0.00 45 1007.0
20260905184007 24 67 0.0 0.0 0.00 0.00 0.00 48 1007.2
20260905183549 24 41 0.0 0.0 0.00 0.00 0.00 47 1007.3
20260905183049 24 15 0.0 1.6 0.00 0.00 0.00 47 1007.4
20260905182546 23 73 0.0 1.6 0.00 0.00 0.00 46 1007.6
20260905182046 23 56 0.0 1.6 0.00 0.00 0.00 48 1007.7
20260905181545 24 67 0.0 1.6 0.00 0.00 0.00 46 1007.8
20260905181043 24 256 0.0 0.0 0.00 0.00 0.00 52 1007.8
20260905180527 23 129 0.0 0.0 0.00 0.00 0.00 52 1007.9
20260905180023 23 127 0.0 0.0 0.00 0.00 0.00 58 1007.9
20260905175522 22 66 0.0 0.0 0.00 0.00 0.00 55 1007.9
20260905175021 22 55 0.0 1.6 0.00 0.00 0.00 56 1008.1
20260905174520 22 69 0.0 1.6 0.00 0.00 0.00 61 1008.2
20260905174020 22 57 0.0 0.0 0.00 0.00 0.00 59 1008.2
20260905173502 22 65 0.0 0.0 0.00 0.00 0.00 61 1008.3
20260905173101 22 17 0.0 0.0 0.00 0.00 0.00 62 1008.3
20260905172600 22 57 0.0 1.6 0.00 0.00 0.00 66 1008.2
20260905172058 22 6 0.0 1.6 0.00 0.00 0.00 68 1008.2
20260905171605 21 179 0.0 1.6 0.00 0.00 0.00 69 1008.2
20260905171055 21 58 0.0 1.6 0.00 0.00 0.00 69 1008.4
20260905170537 21 70 0.0 0.0 0.00 0.00 0.00 69 1008.6
20260905170036 21 224 0.0 0.0 0.00 0.00 0.00 72 1008.7
20260905165534 20 239 0.0 0.0 0.00 0.00 0.00 75 1008.7
20260905165033 20 142 0.0 0.0 0.00 0.00 0.00 75 1008.7
20260905164533 20 51 0.0 0.0 0.00 0.00 0.00 76 1008.8
20260905164029 19 53 0.0 0.0 0.00 0.00 0.00 76 1008.8
20260905163512 19 53 0.0 0.0 0.00 0.00 0.00 78 1008.9
20260905163011 19 69 0.0 0.0 0.00 0.00 0.00 78 1009.0
20260905162510 19 256 0.0 0.0 0.00 0.00 0.00 80 1009.0
20260905162013 18 250 0.0 0.0 0.00 0.00 0.00 81 1009.1
20260905161508 18 250 0.0 0.0 0.00 0.00 0.00 81 1009.1
20260905161007 18 43 0.0 0.0 0.00 0.00 0.00 83 1009.2
20260905160605 17 56 0.0 0.0 0.00 0.00 0.00 83 1009.3
20260905160051 17 11 0.0 0.0 0.00 0.00 0.00 84 1009.4
20260905155546 17 348 0.0 1.6 0.00 0.00 0.00 86 1009.4
20260905155044 17 61 0.0 1.6 0.00 0.00 0.00 86 1009.3
20260905154552 16 250 0.0 0.0 0.00 0.00 0.00 89 1009.4
20260905154046 16 250 0.0 0.0 0.00 0.00 0.00 88 1009.4
20260905153544 16 232 0.0 1.6 0.00 0.00 0.00 88 1009.3
20260905153028 16 151 0.0 0.0 0.00 0.00 0.00 89 1009.3
20260905152526 16 80 0.0 0.0 0.00 0.00 0.00 90 1009.3
20260905152026 16 11 0.0 0.0 0.00 0.00 0.00 90 1009.4
20260905151529 16 55 0.0 0.0 0.00 0.00 0.00 91 1009.5
20260905151026 16 37 0.0 0.0 0.00 0.00 0.00 91 1009.4
20260905150527 16 131 0.0 0.0 0.00 0.00 0.00 92 1009.4
20260905150008 15 129 0.0 0.0 0.00 0.00 0.00 93 1009.5
20260905145509 15 67 0.0 0.0 0.00 0.00 0.00 94 1009.4
20260905145008 15 67 0.0 0.0 0.00 0.00 0.00 94 1009.4
20260905144508 15 63 0.0 0.0 0.00 0.00 0.00 95 1009.5
20260905144007 15 64 0.0 0.0 0.00 0.00 0.00 95 1009.5
20260905143508 15 60 0.0 0.0 0.00 0.00 0.00 96 1009.4
20260905143056 15 60 0.0 0.0 0.00 0.00 0.00 96 1009.4
20260905142558 15 60 0.0 0.0 0.00 0.00 0.00 97 1009.4
20260905142055 15 46 0.0 0.0 0.00 0.00 0.00 97 1009.3
20260905141556 15 46 0.0 0.0 0.00 0.00 0.00 97 1009.3
20260905141054 14 46 0.0 0.0 0.00 0.00 0.00 98 1009.4
20260905140557 14 46 0.0 0.0 0.00 0.00 0.00 98 1009.3
20260905140054 14 69 0.0 0.0 0.00 0.00 0.00 98 1009.3
20260905135554 14 263 0.0 0.0 0.00 0.00 0.00 98 1009.1
20260905135054 14 263 0.0 0.0 0.00 0.00 0.00 98 1008.9
20260905134557 14 263 0.0 0.0 0.00 0.00 0.00 98 1009.0
20260905134054 14 263 0.0 0.0 0.00 0.00 0.00 98 1009.1
20260905133554 13 263 0.0 0.0 0.00 0.00 0.00 98 1009.2
20260905133053 13 263 0.0 0.0 0.00 0.00 0.00 98 1009.2
20260905132551 -17 0.0 0.0 0.00 0.00 0.00 1009.2
20260905132050 -17 0.0 0.0 0.00 0.00 0.00 1009.0
20260905131548 -17 0.0 0.0 0.00 0.00 0.00 1009.1
20260905131047 -17 0.0 0.0 0.00 0.00 0.00 1009.0
20260905130548 -17 0.0 0.0 0.00 0.00 0.00 1008.9
20260905130043 -17 0.0 0.0 0.00 0.00 0.00 1008.7
20260905125544 -17 0.0 0.0 0.00 0.00 0.00 1008.7
20260905125041 -17 0.0 0.0 0.00 0.00 0.00 1008.5
20260905124547 -17 0.0 0.0 0.00 0.00 0.00 1008.3
20260905124038 -17 0.0 0.0 0.00 0.00 0.00 1008.4
20260905123537 -17 0.0 0.0 0.00 0.00 0.00 1008.2
20260905123018 -17 0.0 0.0 0.00 0.00 0.00 1008.0
20260905122523 -17 0.0 0.0 0.00 0.00 0.00 1007.9
20260905122015 -17 0.0 0.0 0.00 0.00 0.00 1008.1
20260905121515 -17 0.0 0.0 0.00 0.00 0.00 1008.0
20260905121012 -17 0.0 0.0 0.00 0.00 0.00 1007.9
20260905120510 -17 0.0 0.0 0.00 0.00 0.00 1007.9
20260905120054 -17 0.0 0.0 0.00 0.00 0.00 1007.8
20260905115551 -17 0.0 0.0 0.00 0.00 0.00 1007.7
20260905115049 -17 0.0 0.0 0.00 0.00 0.00 1007.7
20260905114604 -17 0.0 0.0 0.00 0.00 0.00 1007.7
20260905114046 -17 0.0 0.0 0.00 0.00 0.00 1007.6
20260905113545 -17 0.0 0.0 0.00 0.00 0.00 1007.5
20260905113027 -17 0.0 0.0 0.00 0.00 0.00 1007.3
20260905112525 -17 0.0 0.0 0.00 0.00 0.00 1007.4
20260905112024 -17 0.0 0.0 0.00 0.00 0.00 1007.5
20260905111521 -17 0.0 0.0 0.00 0.00 0.00 1007.5
20260905111021 -17 0.0 0.0 0.00 0.00 0.00 1007.6
20260905110520 -17 0.0 0.0 0.00 0.00 0.00 1007.5
20260905105559 -17 0.0 0.0 0.00 0.00 0.00 1007.5
20260905105058 -17 0.0 0.0 0.00 0.00 0.00 1007.5
20260905104556 -17 0.0 0.0 0.00 0.00 0.00 1007.4
20260905104056 -17 0.0 0.0 0.00 0.00 0.00 1007.5
20260905103553 -17 0.0 0.0 0.00 0.00 0.00 1007.4
20260905103045 -17 0.0 0.0 0.00 0.00 0.00 1007.3
20260905102540 -17 0.0 0.0 0.00 0.00 0.00 1007.2
20260905102037 -17 0.0 0.0 0.00 0.00 0.00 1007.3
20260905101539 -17 0.0 0.0 0.00 0.00 0.00 1007.2
20260905101034 -17 0.0 0.0 0.00 0.00 0.00 1007.2
20260905100533 -17 0.0 0.0 0.00 0.00 0.00 1007.3
20260905100031 -17 0.0 0.0 0.00 0.00 0.00 1007.2
20260905095529 -17 0.0 0.0 0.00 0.00 0.00 1007.3
20260905095029 13 65 0.0 0.0 0.00 0.00 0.00 92 1007.3
20260905094529 13 65 0.0 0.0 0.00 0.00 0.00 92 1007.4
20260905094030 13 65 0.0 0.0 0.00 0.00 0.00 93 1007.4
20260905093528 13 65 0.0 0.0 0.00 0.00 0.00 91 1007.4
20260905093026 14 65 0.0 0.0 0.00 0.00 0.00 91 1007.3
20260905092526 14 65 0.0 0.0 0.00 0.00 0.00 91 1007.2
20260905092024 14 63 0.0 0.0 0.00 0.00 0.00 91 1007.1
20260905091524 14 63 0.0 0.0 0.00 0.00 0.00 91 1007.2
20260905091026 14 63 0.0 0.0 0.00 0.00 0.00 90 1007.1
20260905090522 15 63 0.0 0.0 0.00 0.00 0.00 90 1007.1
20260905090023 15 64 0.0 0.0 0.00 0.00 0.00 91 1007.2
20260905085521 15 63 0.0 0.0 0.00 0.00 0.00 91 1007.2
20260905085023 15 64 0.0 0.0 0.00 0.00 0.00 91 1007.1
20260905084528 15 63 0.0 0.0 0.00 0.00 0.00 92 1007.1
20260905084021 15 63 0.0 0.0 0.00 0.00 0.00 92 1007.1
20260905083522 15 91 0.0 0.0 0.00 0.00 0.00 92 1007.1
20260905083020 15 91 0.0 0.0 0.00 0.00 0.00 92 1007.2
20260905082502 15 90 0.0 0.0 0.00 0.00 0.00 92 1007.1
20260905082002 15 90 0.0 0.0 0.00 0.00 0.00 91 1007.3
20260905081502 15 90 0.0 0.0 0.00 0.00 0.00 91 1007.3
20260905081100 15 90 0.0 0.0 0.00 0.00 0.00 90 1007.5
20260905080600 15 91 0.0 0.0 0.00 0.00 0.00 90 1007.6
20260905075542 15 91 0.0 0.0 0.00 0.00 0.00 89 1007.7
20260905075045 15 90 0.0 0.0 0.00 0.00 0.00 89 1007.7
20260905074541 15 215 0.0 0.0 0.00 0.00 0.00 89 1007.9
20260905074040 15 215 0.0 0.0 0.00 0.00 0.00 88 1007.8
20260905073543 15 215 0.0 0.0 0.00 0.00 0.00 88 1007.8
20260905073046 16 215 0.0 0.0 0.00 0.00 0.00 88 1007.8
20260905072523 16 217 0.0 0.0 0.00 0.00 0.00 88 1007.7
20260905072022 16 217 0.0 0.0 0.00 0.00 0.00 89 1007.8
20260905071522 15 217 0.0 0.0 0.00 0.00 0.00 88 1007.8
20260905071021 16 217 0.0 0.0 0.00 0.00 0.00 88 1007.9
20260905070520 16 217 0.0 0.0 0.00 0.00 0.00 87 1008.0
20260905070019 16 197 0.0 0.0 0.00 0.00 0.00 86 1008.2
20260905065503 16 196 0.0 0.0 0.00 0.00 0.00 86 1008.0
20260905065002 16 197 0.0 0.0 0.00 0.00 0.00 86 1007.9
20260905064502 16 197 0.0 0.0 0.00 0.00 0.00 86 1007.9
20260905064100 16 195 0.0 0.0 0.00 0.00 0.00 85 1007.9
20260905063559 16 197 0.0 0.0 0.00 0.00 0.00 85 1007.8
20260905063117 16 79 0.0 0.0 0.00 0.00 0.00 84 1007.8
20260905062549 16 77 0.0 0.0 0.00 0.00 0.00 84 1007.7
20260905062040 16 77 0.0 0.0 0.00 0.00 0.00 84 1007.7
20260905061601 16 76 0.0 0.0 0.00 0.00 0.00 84 1007.8
20260905061039 17 76 0.0 0.0 0.00 0.00 0.00 83 1007.7
20260905060538 17 77 0.0 0.0 0.00 0.00 0.00 82 1007.6
20260905060038 17 76 0.0 0.0 0.00 0.00 0.00 82 1007.8
20260905055519 17 77 0.0 0.0 0.00 0.00 0.00 82 1007.8
20260905055019 17 117 0.0 0.0 0.00 0.05 0.00 82 1007.9
20260905054520 17 117 0.0 0.0 0.00 0.05 0.00 81 1007.8
20260905054018 17 117 0.0 0.0 0.00 0.05 0.00 81 1007.8
20260905053518 17 117 0.0 0.0 0.00 0.05 0.00 80 1007.8
20260905053021 17 117 0.0 0.0 0.00 0.05 0.00 79 1007.9
20260905052501 17 117 0.0 0.0 0.00 0.05 0.00 79 1007.8
20260905052002 17 77 0.0 0.0 0.00 0.05 0.00 79 1007.8
20260905051601 17 77 0.0 0.0 0.00 0.05 0.00 78 1007.8
20260905051059 17 77 0.0 0.0 0.00 0.05 0.00 78 1007.9
20260905050600 18 77 0.0 0.0 0.00 0.05 0.00 77 1007.9
20260905050059 18 77 0.0 0.0 0.00 0.05 0.00 76 1007.8
20260905045539 18 77 0.0 0.0 0.00 0.05 0.00 76 1007.9
20260905045039 18 77 0.0 0.0 0.00 0.05 0.00 75 1007.8
20260905044539 18 84 0.0 0.0 0.00 0.05 0.00 75 1007.8
20260905044042 18 84 0.0 0.0 0.00 0.05 0.00 75 1007.8
20260905043538 18 83 0.0 0.0 0.00 0.05 0.00 74 1007.8
20260905043104 18 84 0.0 0.0 0.00 0.05 0.00 74 1007.8
20260905042524 18 84 0.0 0.0 0.00 0.05 0.00 74 1007.8
20260905042021 18 83 0.0 0.0 0.00 0.05 0.00 74 1007.8
20260905041518 18 68 0.0 1.6 0.00 0.05 0.00 73 1007.8
20260905041018 18 69 0.0 1.6 0.00 0.05 0.00 73 1007.7
20260905040517 18 51 0.0 1.6 0.00 0.05 0.00 72 1007.8
20260905040020 18 62 0.0 1.6 0.00 0.05 0.00 72 1007.7
20260905035558 18 70 0.0 1.6 0.00 0.05 0.00 71 1007.7
20260905035058 18 46 0.0 1.6 0.00 0.05 0.00 70 1007.5
20260905034600 18 64 0.0 1.6 0.00 0.13 0.00 70 1007.4
20260905034059 18 108 0.0 1.6 0.00 0.13 0.00 71 1007.5
20260905033557 18 68 0.0 1.6 0.00 0.13 0.00 71 1007.4
20260905033100 18 99 0.0 1.6 0.00 0.13 0.00 71 1007.4
20260905032540 19 68 0.0 1.6 0.00 0.13 0.00 70 1007.3
20260905032039 19 65 0.0 1.6 0.00 0.13 0.00 70 1007.2
20260905031540 19 82 0.0 1.6 0.00 0.13 0.00 69 1007.2
20260905031040 20 60 0.0 1.6 0.00 0.13 0.00 68 1007.1
20260905030539 20 72 0.0 1.6 0.00 0.13 0.00 68 1007.1
20260905030042 20 79 0.0 1.6 0.00 0.13 0.00 68 1007.0
20260905025522 20 16 0.0 1.6 0.00 0.13 0.00 68 1006.9
20260905025021 20 107 0.0 0.0 0.00 0.13 0.00 68 1006.8
20260905024522 20 53 0.0 0.0 0.00 0.13 0.00 68 1006.8
20260905024028 20 70 0.0 0.0 0.00 0.13 0.00 67 1006.8
20260905023521 20 63 0.0 0.0 0.00 0.13 0.00 66 1006.8
20260905023021 20 63 0.0 0.0 0.00 0.13 0.00 66 1006.5
20260905022512 21 91 0.0 0.0 0.00 0.13 0.00 66 1006.5
20260905022011 21 93 0.0 0.0 0.00 0.13 0.00 65 1006.5
20260905021510 21 68 0.0 0.0 0.00 0.13 0.00 65 1006.5
20260905021009 21 60 0.0 0.0 0.00 0.13 0.00 64 1006.3
20260905020509 21 77 0.0 0.0 0.00 0.13 0.00 64 1006.2
20260905020009 21 65 0.0 0.0 0.00 0.13 0.00 63 1006.2
20260905015512 21 75 0.0 0.0 0.00 0.13 0.00 62 1006.2
20260905015009 21 63 0.0 0.0 0.00 0.13 0.00 61 1006.2
20260905014507 22 70 0.0 0.0 0.00 0.13 0.00 61 1006.1
20260905014008 22 56 0.0 0.0 0.00 0.13 0.00 62 1006.0
20260905013508 22 67 0.0 0.0 0.00 0.13 0.00 60 1005.8
20260905013008 22 61 0.0 1.6 0.00 0.13 0.00 59 1005.7
20260905012508 22 70 0.0 0.0 0.00 0.13 0.00 59 1005.5
20260905012008 22 69 0.0 0.0 0.00 0.13 0.00 59 1005.5
20260905011507 22 51 0.0 0.0 0.00 0.13 0.00 59 1005.4
20260905011007 22 76 0.0 0.0 0.00 0.13 0.00 58 1005.2
20260905010508 22 75 0.0 0.0 0.00 0.13 0.00 57 1005.1
20260905010014 23 67 0.0 1.6 0.00 0.13 0.00 57 1005.0
20260905005505 23 63 0.0 1.6 0.00 0.13 0.00 56 1004.9
20260905005006 23 67 0.0 1.6 0.00 0.13 0.00 55 1004.9
20260905004508 23 60 0.0 1.6 0.00 0.13 0.00 54 1004.9
20260905004006 23 70 0.0 1.6 0.00 0.13 0.00 53 1004.8
20260905003505 24 47 0.0 1.6 0.00 0.13 0.00 51 1004.8
20260905003013 24 58 0.0 1.6 0.00 0.13 0.00 49 1004.7
20260905002506 25 75 0.0 0.0 0.00 0.13 0.00 49 1004.7
20260905002051 25 75 0.0 0.0 0.00 0.13 0.00 48 1004.5
20260905001548 25 75 0.0 0.0 0.00 0.13 0.00 47 1004.5
20260905001047 25 75 0.0 0.0 0.00 0.13 0.00 46 1004.4
20260905000547 25 75 0.0 0.0 0.00 0.13 0.00 44 1004.4
20260905000047 26 76 0.0 0.0 0.00 0.13 0.00 44 1004.4
20260904235546 26 82 0.0 0.0 0.00 0.13 0.00 43 1004.4
20260904235028 26 82 0.0 0.0 0.00 0.13 0.00 44 1004.6
20260904234536 26 82 0.0 0.0 0.00 0.13 0.00 43 1004.5
20260904234030 26 143 0.0 1.6 0.00 0.13 0.00 44 1004.6
20260904233530 26 169 0.0 1.6 0.00 0.13 0.00 45 1004.6
20260904233027 26 152 0.0 1.6 0.00 0.13 0.00 45 1004.6
20260904232527 26 160 0.0 1.6 0.00 0.13 0.00 48 1004.7
20260904232011 26 138 0.0 1.6 0.00 0.13 0.00 49 1004.7
20260904231507 25 156 0.0 1.6 0.00 0.13 0.00 52 1004.7
20260904231007 25 167 0.0 1.6 0.00 0.13 0.00 54 1004.7
20260904230508 25 232 0.0 0.0 0.00 0.13 0.00 53 1004.8
20260904230008 25 191 0.0 1.6 0.00 0.13 0.00 53 1004.9
20260904225507 24 160 0.0 1.6 0.00 0.13 0.00 56 1005.0
20260904225047 24 219 0.0 1.6 0.00 0.13 0.00 57 1005.0
20260904224553 23 172 0.0 1.6 0.00 0.13 0.00 57 1005.0
20260904224051 23 207 0.0 1.6 0.00 0.13 0.00 56 1004.9
20260904223549 24 169 0.0 1.6 0.00 0.13 0.00 56 1005.0
20260904223045 24 242 0.0 1.6 0.00 0.13 0.00 56 1005.1
20260904222545 24 225 0.0 1.6 0.00 0.13 0.00 56 1005.2
20260904222027 24 166 0.0 1.6 0.00 0.13 0.00 55 1005.2
20260904221528 24 228 0.0 1.6 0.00 0.13 0.00 55 1005.3
20260904221026 25 226 0.0 4.8 0.00 0.13 0.00 54 1005.3
20260904220529 24 163 0.0 4.8 0.00 0.13 0.00 57 1005.3
20260904220039 24 246 0.0 1.6 0.00 0.13 0.00 54 1005.4
20260904215526 25 218 0.0 4.8 0.00 0.13 0.00 55 1005.3
20260904215008 25 201 0.0 4.8 0.00 0.33 0.00 55 1005.3
20260904214514 26 159 0.0 9.7 0.00 0.33 0.00 55 1005.4
20260904214007 26 226 0.0 9.7 0.00 0.33 0.00 54 1005.5
20260904213507 26 39 0.0 8.0 0.00 0.33 0.00 51 1005.6
20260904213006 26 65 0.0 8.0 0.00 0.33 0.00 50 1005.7
20260904212505 26 56 0.0 0.0 0.00 0.33 0.00 46 1005.6
20260904212047 25 57 0.0 0.0 0.00 0.33 0.00 49 1005.7
20260904211604 25 56 0.0 0.0 0.00 0.33 0.00 49 1005.7
20260904211048 26 67 0.0 0.0 0.00 0.33 0.00 49 1005.6
20260904210545 26 141 0.0 0.0 0.00 0.33 0.00 57 1005.6
20260904210048 26 141 0.0 0.0 0.00 0.33 0.00 53 1005.7
20260904205545 26 183 0.0 1.6 0.00 0.33 0.00 52 1005.8
20260904205036 26 134 0.0 1.6 0.00 0.33 0.00 54 1006.0
20260904204533 26 72 0.0 0.0 0.00 0.33 0.00 50 1006.1
20260904204032 26 359 0.0 0.0 0.00 0.33 0.00 50 1006.0
20260904203531 27 348 0.0 0.0 0.00 0.33 0.00 53 1006.0
20260904203043 27 69 0.0 0.0 0.00 0.33 0.00 49 1006.2
20260904202529 27 39 0.0 1.6 0.00 0.33 0.00 51 1006.3
20260904202028 27 70 0.0 1.6 0.00 0.33 0.00 50 1006.3
20260904201527 27 153 0.0 1.6 0.00 0.33 0.00 51 1006.5
20260904201026 26 233 0.0 1.6 0.00 0.33 0.00 53 1006.6
20260904200526 26 350 0.0 0.0 0.00 0.33 0.00 52 1006.7
20260904200025 26 295 0.0 1.6 0.00 0.33 0.00 51 1006.8
20260904195524 26 315 0.0 1.6 0.00 0.33 0.00 51 1006.9